Vertical_Velocity
-1 -10 -1 -0 0 -1 -2 -1 -1 1 -0 0 -1 -1 -4 -5 3 0 -2 1 0 1 0 -1 -1 -1 -1 -2 -2 -1 -1 -1 -1 -1 -5 -1 -4 -4 -2 -4 0 -1 -0 1
-10 -1 0 -0 -1 -2 -1 -1 0 -0 0 1 -1 -6 -3 0 -2 -2 -1 -1 1 0 -1 -1 -1 -2 -1 -2 -3 -1 -1 1 -0 -2 -0 -4 -4 0 1 -2 -1 1 0 -1
-4 1 -0 -1 -0 -3 0 -2 0 -3 -1 -1 -0 -5 -1 -0 0 0 3 4 2 -0 0 0 -1 1 -0 0 -1 -1 -0 -0 -1 -3 3 1 2 -2 -2 -4 -5 -3 -3 -2
0 -0 -1 -1 -0 -3 -1 -0 -1 -0 -3 -4 -3 -9 -2 -1 -0 0 1 -0 -0 1 -0 -1 -0 -1 -3 -1 -2 2 1 -2 -4 0 -3 -3 -5 -3 -3 0 0 -1 3 2
-8 -0 -1 -2 1 -1 -4 -0 -0 -0 -1 -3 -2 -6 -13 -0 -1 -2 -1 -1 -1 -1 -1 -0 1 -1 -1 -5 0 -1 -2 -0 -1 -0 -0 -3 0 -2 1 -0 2 0 -1 1
0 1 -1 0 1 -0 -0 -2 -3 -1 -1 -5 -2 -5 -9 -2 -5 -0 0 -1 -1 -0 0 1 -1 -4 1 1 -1 -1 -1 -2 -2 2 -0 -2 -1 -2 -3 -4 -3 -2 -3 -4
-4 -1 -1 -1 -3 -2 -4 -5 -5 -9 -7 -7 -0 -0 -15 -2 -2 -2 -2 -2 -1 0 -1 -2 -2 -2 0 1 -3 -3 -0 0 1 2 -3 1 -3 -0 1 -2 -1 1 1 1
-3 -14 -1 -1 -1 -6 0 -5 -7 -5 -2 -4 -1 -4 -20 -2 -0 -0 -0 1 1 -0 -1 -3 -3 -1 0 -3 -3 -0 1 -1 -2 2 -3 1 -0 -2 -2 -4 -4 -3 -1 -1
-2 -5 -2 0 0 -7 -2 -3 -4 -4 -1 -0 -4 -10 -8 0 -1 0 -1 -0 -2 -3 -3 -2 -1 -3 -4 -4 -0 -0 0 -0 -2 -1 -1 -0 1 -1 -2 -3 -3 -2 -2 -1
-3 -5 -1 -1 -2 0 -1 -5 -8 -3 -4 -1 -4 -2 -8 -2 -2 -1 -1 -3 -2 -2 -1 -1 -3 -3 -2 1 2 1 -2 -2 1 -1 -2 3 3 1 -2 -3 -3 -4 -6 -5
-1 -7 1 2 -1 -4 1 -0 -1 -6 -4 -4 -1 -11 -5 -3 -2 -2 -2 -2 -2 -2 -3 -3 -4 -2 -2 -1 -1 -0 1 -1 -4 -2 2 -1 -1 -1 -1 -1 -0 1 1 2
1 -3 -1 -7 -2 -2 -1 -2 -3 -5 -3 -1 -3 -19 -0 -1 -1 -0 -1 -0 -0 -0 -0 -0 1 -0 -2 0 -1 0 -1 -2 -1 -2 -1 0 -2 -3 -2 -1 -1 -2 -2 -2
-2 -1 -3 -11 -11 -1 0 -0 -1 -1 -2 -3 -4 -15 -0 -0 -0 -1 -2 -2 -2 -1 -2 -1 -2 -3 -0 -2 -4 -2 -2 -1 -1 1 -1 2 0 -1 -1 -2 -0 2 1 0
-2 -0 -5 -9 -8 -4 1 1 0 -4 -1 -3 -7 -5 -5 -2 -1 -2 -4 -2 -1 -1 -1 0 -1 -1 -2 -1 -3 -3 -2 -0 -1 0 2 -2 -0 -3 -2 -1 -1 0 0 -1
-5 -1 0 -1 -1 1 -1 -0 0 1 -7 -3 -2 -1 -5 -3 -2 -6 -1 1 -0 -2 -2 -3 -4 -2 -2 -2 -2 -0 -0 -2 0 -1 -0 1 1 0 1 -0 -1 -2 -1 -1
-0 -2 -0 -2 -1 1 0 -0 0 -0 -1 1 2 -16 0 -8 3 -0 -3 2 -3 -1 -1 1 0 0 -3 -1 -0 3 -3 -2 4 3 1 3 3 -1 -1 -0 1 1 -0 -0
-1 -1 -1 -4 0 -1 -3 -6 -3 -1 0 -5 0 -31 -1 -3 -0 -3 -5 2 -3 -3 -0 -0 -3 -1 -1 -6 -1 -6 0 6 1 -0 0 2 2 1 1 3 1 1 1 0
-1 -1 -1 -2 -3 -6 -16 -0 -2 -5 -3 0 2 -4 -2 -2 -2 -1 -1 -0 -3 -1 -3 -3 -2 -2 -5 -1 -2 2 -1 -2 -1 -2 2 3 2 0 -0 0 0 0 -0 -0
-1 -2 -1 -2 -0 -12 -4 0 -4 -6 -9 -2 -3 -3 -3 -1 0 -16 3 3 -1 0 -0 -1 3 -0 3 -0 3 2 0 0 1 -0 0 -0 -2 -2 -2 -1 -1 -1 -0 -0
-1 -2 -6 -1 1 -1 -4 -0 -0 -0 -8 -0 -0 -2 -0 0 -2 -7 -1 -1 -1 -3 -1 -3 -2 -2 -1 -1 -2 -3 -2 1 -4 1 3 -1 -1 -2 -2 -2 -1 0 -2 -2
0 0 -2 -0 -1 -12 -4 -2 1 -5 -18 -0 1 1 0 -2 -8 -3 -2 -1 -3 -4 -3 -3 -1 -1 4 5 4 2 3 -5 8 3 2 1 -0 0 -0 0 -1 -1 1 0
-5 -5 -1 0 2 -11 -0 -1 -7 -9 0 1 0 -1 0 0 -1 0 1 -0 -2 -5 -4 -1 0 -0 -2 -1 2 1 1 11 1 0 1 0 -0 0 -1 -1 0 0 -0 -1
-4 -9 -9 -10 -16 -2 -0 -1 1 2 1 -9 5 1 5 1 -2 4 -2 -0 -1 -2 -1 -1 -0 -1 -2 -2 -2 -1 2 -0 1 1 -1 -2 0 0 0 -0 -1 -1 -1 -2
-1 1 -0 0 -7 -4 -2 -1 7 4 1 2 4 -1 4 -1 -0 -4 1 1 0 1 -1 3 1 -1 1 1 -0 3 2 1 -1 2 1 -1 -2 -2 -1 -1 -1 0 1 -1
-4 1 -2 -5 -6 -8 2 7 1 -5 -2 -0 1 4 1 3 -2 1 -0 1 1 -0 0 3 0 1 1 3 3 3 1 -0 -0 1 1 -1 -2 -2 -1 -0 1 -0 -0 -2
-2 -5 -3 -7 2 3 -5 -6 -1 -1 -0 -1 5 -3 1 2 0 1 -0 1 -1 -2 -1 -2 0 2 2 -1 1 4 4 2 5 0 0 1 -1 1 -1 1 1 -0 -1 -0
Height
1507 1516 1527 1520 1518 1520 1524 1527 1529 1530 1530 1531 1530 1528 1522 1518 1518 1517 1518 1520 1523 1524 1525 1524 1523 1521 1519 1516 1513 1510 1508 1506 1504 1501 1498 1495 1492 1491 1490 1488 1487 1486 1485 1483
1515 1525 1522 1520 1520 1520 1523 1529 1533 1531 1530 1531 1529 1523 1515 1513 1512 1512 1513 1517 1519 1521 1522 1521 1520 1519 1516 1513 1511 1508 1506 1504 1502 1500 1498 1495 1492 1491 1489 1487 1486 1485 1483 1481
1520 1525 1522 1523 1524 1525 1531 1533 1532 1538 1532 1532 1533 1523 1512 1511 1510 1510 1511 1514 1516 1518 1518 1518 1518 1517 1514 1512 1509 1506 1504 1503 1502 1500 1498 1495 1493 1491 1489 1487 1487 1485 1483 1482
1524 1525 1525 1527 1528 1530 1533 1531 1531 1532 1541 1547 1538 1544 1515 1512 1511 1510 1511 1512 1514 1515 1515 1516 1515 1513 1512 1511 1508 1505 1503 1502 1501 1500 1497 1494 1493 1491 1489 1487 1486 1486 1483 1481
1533 1527 1528 1531 1531 1529 1534 1531 1532 1533 1541 1547 1540 1556 1520 1514 1511 1508 1508 1510 1511 1512 1513 1513 1512 1511 1511 1510 1507 1505 1503 1502 1501 1499 1497 1495 1494 1493 1490 1489 1487 1485 1483 1481
1526 1526 1528 1530 1531 1530 1531 1534 1539 1542 1549 1561 1540 1547 1521 1514 1504 1502 1504 1506 1508 1509 1510 1509 1509 1509 1509 1508 1507 1505 1504 1503 1502 1500 1497 1495 1494 1492 1491 1490 1488 1486 1484 1482
1531 1531 1529 1530 1533 1532 1535 1545 1573 1564 1566 1558 1542 1545 1516 1501 1500 1500 1500 1502 1505 1506 1506 1506 1507 1507 1508 1507 1507 1506 1505 1504 1502 1500 1499 1496 1494 1493 1491 1490 1489 1487 1486 1483
1550 1555 1532 1530 1532 1535 1536 1541 1564 1557 1562 1559 1541 1538 1508 1496 1496 1497 1498 1500 1502 1503 1503 1503 1505 1505 1506 1507 1507 1506 1506 1504 1502 1501 1499 1497 1495 1493 1491 1491 1490 1488 1486 1484
1543 1546 1530 1531 1529 1532 1537 1548 1540 1555 1557 1555 1548 1523 1498 1495 1495 1496 1497 1498 1498 1499 1499 1500 1501 1502 1504 1505 1505 1505 1504 1503 1501 1500 1499 1498 1496 1493 1492 1491 1489 1487 1485 1483
1528 1542 1531 1529 1529 1530 1531 1535 1547 1551 1560 1548 1544 1532 1510 1497 1492 1492 1494 1493 1494 1495 1496 1497 1497 1499 1501 1503 1504 1503 1502 1501 1500 1500 1499 1498 1496 1493 1491 1489 1487 1485 1483 1481
1524 1530 1532 1530 1532 1533 1535 1536 1537 1544 1549 1555 1543 1518 1494 1491 1490 1490 1489 1489 1490 1491 1492 1493 1495 1497 1499 1500 1501 1500 1500 1500 1500 1499 1498 1496 1494 1492 1490 1489 1487 1484 1482 1479
1524 1531 1542 1532 1527 1527 1529 1532 1536 1546 1542 1544 1546 1518 1488 1487 1487 1487 1486 1486 1487 1488 1490 1491 1493 1494 1496 1497 1498 1499 1498 1498 1497 1496 1495 1494 1492 1490 1488 1487 1485 1482 1479 1476
1523 1531 1549 1537 1533 1528 1528 1528 1529 1534 1539 1539 1545 1512 1487 1486 1486 1485 1484 1484 1485 1485 1487 1488 1490 1490 1492 1493 1494 1494 1494 1493 1493 1492 1492 1490 1489 1488 1486 1484 1481 1478 1476 1473
1522 1529 1529 1536 1522 1525 1526 1523 1524 1527 1546 1532 1521 1506 1489 1486 1486 1482 1481 1481 1481 1481 1482 1484 1485 1485 1487 1488 1489 1489 1489 1489 1489 1489 1489 1488 1486 1484 1482 1481 1479 1476 1473 1470
1524 1529 1532 1526 1524 1522 1519 1518 1521 1522 1515 1519 1500 1502 1479 1481 1480 1477 1476 1476 1476 1475 1476 1477 1478 1480 1481 1482 1482 1482 1484 1484 1485 1484 1483 1483 1481 1481 1479 1478 1475 1473 1469 1466
1524 1528 1528 1533 1518 1520 1519 1515 1514 1512 1511 1506 1503 1489 1478 1474 1475 1474 1472 1473 1472 1470 1470 1471 1472 1473 1474 1477 1478 1479 1479 1478 1478 1478 1479 1478 1477 1476 1475 1473 1471 1468 1466 1463
1526 1530 1533 1528 1519 1517 1513 1501 1497 1497 1497 1495 1502 1468 1470 1469 1470 1469 1468 1467 1466 1464 1463 1463 1463 1465 1467 1469 1470 1471 1473 1474 1474 1476 1476 1475 1473 1472 1471 1469 1467 1465 1462 1459
1526 1528 1535 1535 1523 1521 1484 1482 1482 1485 1481 1482 1477 1468 1467 1466 1464 1463 1462 1460 1458 1457 1456 1456 1456 1456 1459 1461 1464 1466 1468 1469 1470 1470 1470 1470 1469 1468 1467 1465 1463 1460 1457 1454
1522 1527 1535 1541 1537 1504 1476 1479 1483 1484 1474 1470 1471 1466 1463 1464 1462 1452 1453 1454 1453 1451 1450 1450 1450 1451 1452 1454 1457 1459 1461 1461 1462 1464 1465 1465 1464 1463 1462 1460 1458 1455 1452 1450
1522 1525 1533 1536 1529 1505 1479 1478 1478 1478 1482 1466 1466 1464 1463 1463 1466 1455 1452 1451 1450 1448 1446 1445 1446 1446 1446 1448 1449 1450 1452 1454 1455 1457 1458 1457 1457 1457 1456 1455 1453 1451 1448 1445
1527 1530 1531 1534 1533 1507 1480 1476 1477 1479 1477 1463 1463 1461 1460 1461 1456 1451 1450 1448 1447 1445 1443 1442 1440 1441 1442 1442 1443 1443 1445 1447 1451 1453 1453 1453 1453 1453 1452 1450 1449 1447 1444 1442
1519 1528 1527 1530 1531 1512 1472 1476 1477 1470 1464 1464 1462 1461 1457 1454 1451 1448 1446 1444 1442 1441 1439 1438 1437 1436 1437 1439 1440 1441 1443 1447 1449 1450 1450 1451 1450 1449 1447 1446 1445 1443 1440 1438
1512 1502 1507 1506 1489 1470 1469 1466 1466 1465 1464 1462 1458 1455 1453 1450 1447 1446 1443 1441 1439 1436 1435 1434 1432 1431 1431 1431 1432 1435 1439 1440 1442 1442 1443 1445 1445 1444 1442 1441 1439 1438 1436 1433
1497 1495 1498 1491 1468 1467 1466 1466 1467 1465 1461 1457 1454 1451 1448 1444 1442 1439 1437 1437 1435 1434 1432 1430 1429 1428 1428 1427 1428 1431 1433 1434 1436 1437 1437 1438 1439 1438 1437 1436 1434 1432 1430 1428
1493 1492 1489 1486 1472 1466 1462 1463 1463 1460 1458 1454 1450 1447 1443 1440 1436 1434 1432 1431 1430 1429 1428 1426 1425 1425 1425 1426 1426 1427 1428 1429 1430 1433 1432 1431 1432 1432 1431 1430 1429 1427 1426 1423
1484 1483 1485 1480 1473 1472 1463 1459 1457 1453 1449 1446 1443 1440 1439 1436 1433 1431 1429 1427 1425 1422 1420 1419 1419 1419 1420 1422 1424 1425 1425 1426 1427 1427 1428 1426 1426 1425 1425 1425 1423 1422 1420 1418